ONEWEB-0326 (49195 NORAD) Tracking and Keplerian Element Data

This shows tracking and keplerian element data for the satellite.

Feedback or suggestion? Click here.




ElementValue
Catalog49195
NameONEWEB-0326
Epoch Orbit776
Epoch Day300.83334491
Epoch Year2021
RAAN313.9881
Inclination87.5854
Eccentricity0.0024283
Argument of Perigee139.3151
Mean Anonmoly161.506
Mean Motion14.53956345
Decay Rate-0.01367035
L11 49195U 21083K 21300.83334491 -.01367035 00000-0 -34982+0 0 9995
L22 49195 87.5854 313.9881 0024283 139.3151 161.5060 14.53956345 7766

Live tracking and technical data element details for ONEWEB-0326 (NORAD 49195). ONEWEB-0326 can be tracked NOW for your location showing map with azimuth and elevation plus other details from your city location.

Track the satellite on the map from your city or location and see movement details for azimuth, elevation, latitude, longitude, range, height, and movement on the map or in text.







IsCatalogInMostPopularTable: catalog: 49195, numindb: 8
Update: records affected: 1



GetName: 49195 ONEWEB-0326

Hit Count: updated at: Thu, 28 Oct 2021 12:01:54 GMT